When you browse on this site, cookies collect data to enhance your experience and personalize the content and advertising you see.
Visit our Privacy Policy to learn more. By continuing to use the site, you agree to this use of cookies and data.
  • In Hungary
  • List of Countries
  • For 7 days
  • Water Temperature
  • Satellite Maps
  • Weather Map
  • News
  • Weather Widgets
  • user-avatar
    Login

    Hourly Weather Braine-le-Comte

    Today, 20 January, Sunday

    Time Temperature Precipitation Wind Pressure Humidity
    00:00 -3°C° 0 mm 2 mps 751 mmHg 70%
    01:00 -3°C° 0 mm 2 mps 751 mmHg 69%
    02:00 -3°C° 0 mm 2 mps 751 mmHg 69%
    03:00 -3°C° 0 mm 2 mps 751 mmHg 69%
    04:00 -3°C° 0 mm 2 mps 751 mmHg 68%
    05:00 -3°C° 0 mm 2 mps 751 mmHg 67%
    06:00 -3°C° 0 mm 2 mps 751 mmHg 67%
    07:00 -3°C° 0 mm 2 mps 752 mmHg 64%
    08:00 -2°C° 0 mm 2 mps 752 mmHg 62%
    09:00 -2°C° 0 mm 2 mps 753 mmHg 60%
    10:00 -1°C° 0 mm 2 mps 753 mmHg 56%
    11:00 +1°C° 0 mm 2 mps 753 mmHg 51%
    12:00 +2°C° 0 mm 2 mps 753 mmHg 47%
    13:00 +2°C° 0 mm 2 mps 754 mmHg 49%
    14:00 +2°C° 0 mm 2 mps 754 mmHg 51%
    15:00 +1°C° 0 mm 2 mps 754 mmHg 54%
    16:00 -1°C° 0 mm 2 mps 755 mmHg 58%
    17:00 -2°C° 0 mm 2 mps 755 mmHg 62%
    18:00 -3°C° 0 mm 2 mps 756 mmHg 66%
    19:00 -3°C° 0 mm 2 mps 756 mmHg 66%
    20:00 -3°C° 0 mm 2 mps 757 mmHg 67%
    21:00 -3°C° 0 mm 2 mps 757 mmHg 68%
    22:00 -3°C° 0 mm 2 mps 758 mmHg 67%
    23:00 -3°C° 0 mm 2 mps 758 mmHg 67%

    Tomorrow, 21 January, Monday

    Time Temperature Precipitation Wind Pressure Humidity
    00:00 -3°C° 0 mm 2 mps 758 mmHg 67%
    01:00 -1°C° 0 mm 1 mps 758 mmHg 66%
    02:00 -1°C° 0 mm 1 mps 758 mmHg 65%
    03:00 -1°C° 0 mm 1 mps 759 mmHg 64%
    04:00 -1°C° 0 mm 1 mps 759 mmHg 63%
    05:00 -1°C° 0 mm 1 mps 759 mmHg 62%
    06:00 -3°C° 0 mm 0 mps 759 mmHg 61%
    07:00 -2°C° 0 mm 0 mps 759 mmHg 59%
    08:00 -2°C° 0 mm 0 mps 759 mmHg 56%
    09:00 -1°C° 0 mm 0 mps 759 mmHg 53%
    10:00 0°C° 0 mm 0 mps 759 mmHg 49%
    11:00 +1°C° 0 mm 0 mps 759 mmHg 45%
    12:00 +3°C° 0 mm 1 mps 759 mmHg 42%
    13:00 +3°C° 0 mm 1 mps 758 mmHg 44%
    14:00 +3°C° 0 mm 1 mps 758 mmHg 47%
    15:00 +3°C° 0 mm 1 mps 757 mmHg 49%
    16:00 +2°C° 0 mm 1 mps 757 mmHg 52%
    17:00 +1°C° 0 mm 1 mps 757 mmHg 55%
    18:00 -2°C° 0 mm 2 mps 757 mmHg 58%
    19:00 -3°C° 0 mm 2 mps 756 mmHg 59%
    20:00 -4°C° 0 mm 3 mps 756 mmHg 60%
    21:00 -4°C° 0 mm 3 mps 755 mmHg 61%
    22:00 -4°C° 0 mm 4 mps 754 mmHg 60%
    23:00 -5°C° 0 mm 5 mps 754 mmHg 59%

    Day after tomorrow, 22 January, Tuesday

    Time Temperature Precipitation Wind Pressure Humidity
    00:00 -5°C° 0 mm 5 mps 753 mmHg 57%
    01:00 -4°C° 0 mm 6 mps 752 mmHg 56%
    02:00 -4°C° 0 mm 6 mps 751 mmHg 55%
    03:00 -3°C° 0 mm 7 mps 749 mmHg 54%
    04:00 -3°C° 0 mm 7 mps 748 mmHg 55%
    05:00 -3°C° 0 mm 7 mps 747 mmHg 56%
    06:00 -4°C° 0 mm 8 mps 746 mmHg 57%
    07:00 -4°C° 0.6 mm 8 mps 745 mmHg 67%
    08:00 -5°C° 0.6 mm 8 mps 744 mmHg 77%
    09:00 -5°C° 0.6 mm 8 mps 744 mmHg 88%
    10:00 -4°C° 0.7 mm 8 mps 743 mmHg 88%
    11:00 -3°C° 0.7 mm 7 mps 742 mmHg 88%
    12:00 -3°C° 0.7 mm 7 mps 742 mmHg 89%
    13:00 -2°C° 0.8 mm 5 mps 741 mmHg 91%
    14:00 -2°C° 0.8 mm 4 mps 741 mmHg 94%
    15:00 -1°C° 0.8 mm 3 mps 740 mmHg 96%
    16:00 -1°C° 0.5 mm 2 mps 741 mmHg 96%
    17:00 -1°C° 0.5 mm 2 mps 741 mmHg 95%
    18:00 +1°C° 0.5 mm 1 mps 741 mmHg 94%
    19:00 -1°C° 0.1 mm 2 mps 741 mmHg 93%
    20:00 -1°C° 0.1 mm 2 mps 741 mmHg 92%
    21:00 -1°C° 0.1 mm 2 mps 741 mmHg 91%
    22:00 -2°C° 0.1 mm 2 mps 741 mmHg 91%
    23:00 -2°C° 0.1 mm 2 mps 741 mmHg 91%

    23 January, Wednesday

    Time Temperature Precipitation Wind Pressure Humidity
    00:00 -2°C° 0.1 mm 2 mps 741 mmHg 91%
    01:00 -2°C° 0 mm 2 mps 741 mmHg 91%
    02:00 -2°C° 0 mm 2 mps 741 mmHg 91%
    03:00 -2°C° 0 mm 2 mps 741 mmHg 91%
    04:00 -3°C° 0 mm 2 mps 741 mmHg 91%
    05:00 -3°C° 0 mm 2 mps 742 mmHg 91%
    06:00 -3°C° 0 mm 2 mps 742 mmHg 91%
    07:00 -3°C° 0 mm 2 mps 742 mmHg 91%
    08:00 -3°C° 0 mm 2 mps 743 mmHg 90%
    09:00 -3°C° 0 mm 2 mps 743 mmHg 90%
    10:00 -2°C° 0 mm 2 mps 744 mmHg 92%
    11:00 -1°C° 0 mm 2 mps 744 mmHg 94%
    12:00 +1°C° 0 mm 2 mps 744 mmHg 96%
    13:00 +1°C° 0 mm 2 mps 745 mmHg 95%
    14:00 +1°C° 0 mm 2 mps 745 mmHg 94%
    15:00 +1°C° 0 mm 2 mps 745 mmHg 93%
    16:00 -1°C° 0 mm 2 mps 746 mmHg 92%
    17:00 -1°C° 0 mm 2 mps 746 mmHg 92%
    18:00 -2°C° 0 mm 2 mps 747 mmHg 91%
    19:00 -2°C° 0 mm 2 mps 747 mmHg 92%
    20:00 -2°C° 0 mm 2 mps 748 mmHg 93%
    21:00 -2°C° 0 mm 2 mps 748 mmHg 93%
    22:00 -2°C° 0 mm 2 mps 748 mmHg 93%
    23:00 -2°C° 0 mm 2 mps 749 mmHg 93%

    24 January, Thursday

    Time Temperature Precipitation Wind Pressure Humidity
    00:00 -2°C° 0 mm 2 mps 749 mmHg 93%
    01:00 -2°C° 0 mm 2 mps 749 mmHg 93%
    02:00 -2°C° 0 mm 3 mps 749 mmHg 92%
    03:00 -2°C° 0 mm 3 mps 750 mmHg 91%
    04:00 -4°C° 0 mm 3 mps 750 mmHg 91%
    05:00 -4°C° 0 mm 3 mps 750 mmHg 90%
    06:00 -3°C° 0 mm 2 mps 750 mmHg 89%
    07:00 -3°C° 0 mm 2 mps 750 mmHg 89%
    08:00 -3°C° 0 mm 2 mps 750 mmHg 88%
    09:00 -3°C° 0 mm 2 mps 751 mmHg 87%
    10:00 -2°C° 0 mm 2 mps 751 mmHg 88%
    11:00 -1°C° 0 mm 2 mps 751 mmHg 89%
    12:00 +1°C° 0 mm 2 mps 751 mmHg 90%
    13:00 +1°C° 0 mm 2 mps 751 mmHg 90%
    14:00 +1°C° 0 mm 2 mps 751 mmHg 91%
    15:00 -1°C° 0 mm 2 mps 751 mmHg 91%
    16:00 -1°C° 0 mm 2 mps 751 mmHg 91%
    17:00 0°C° 0 mm 1 mps 752 mmHg 91%
    18:00 0°C° 0 mm 1 mps 752 mmHg 91%
    19:00 -1°C° 0 mm 1 mps 753 mmHg 91%
    20:00 -1°C° 0 mm 1 mps 753 mmHg 91%
    21:00 -1°C° 0 mm 1 mps 753 mmHg 91%
    22:00 -1°C° 0 mm 1 mps 754 mmHg 91%
    23:00 -2°C° 0 mm 1 mps 754 mmHg 91%

    25 January, Friday

    Time Temperature Precipitation Wind Pressure Humidity
    00:00 -2°C° 0 mm 1 mps 755 mmHg 91%
    01:00 -3°C° 0 mm 0 mps 755 mmHg 92%
    02:00 -3°C° 0 mm 0 mps 755 mmHg 92%
    03:00 -3°C° 0 mm 0 mps 755 mmHg 92%
    04:00 -3°C° 0 mm 0 mps 756 mmHg 92%
    05:00 -3°C° 0 mm 0 mps 756 mmHg 92%
    06:00 -3°C° 0 mm 0 mps 757 mmHg 93%
    07:00 -3°C° 0 mm 0 mps 757 mmHg 92%
    08:00 -2°C° 0 mm 0 mps 758 mmHg 92%
    09:00 -1°C° 0 mm 1 mps 758 mmHg 91%
    10:00 0°C° 0 mm 1 mps 758 mmHg 91%
    11:00 +1°C° 0 mm 1 mps 759 mmHg 91%
    12:00 +2°C° 0 mm 1 mps 759 mmHg 91%
    13:00 +2°C° 0 mm 1 mps 759 mmHg 91%
    14:00 +1°C° 0 mm 1 mps 759 mmHg 92%
    15:00 +1°C° 0 mm 1 mps 759 mmHg 93%
    16:00 -1°C° 0 mm 2 mps 759 mmHg 92%
    17:00 -2°C° 0 mm 2 mps 759 mmHg 92%
    18:00 -3°C° 0 mm 2 mps 760 mmHg 91%
    19:00 -4°C° 0 mm 3 mps 760 mmHg 91%
    20:00 -4°C° 0 mm 3 mps 760 mmHg 91%
    21:00 -4°C° 0 mm 3 mps 760 mmHg 90%
    22:00 -4°C° 0 mm 4 mps 760 mmHg 89%
    23:00 -4°C° 0 mm 4 mps 759 mmHg 88%
    Show more